Find Starlink 32414

NORAD ID: 61667 Int'l Des: 2024-193 Owner: SPXS Country: US Constellation: starlink operational
LEOCIRCULAR

Live Position

Loading 3D Globe...

About Starlink 32414

Description loading...

Upcoming Passes

Passes for default location (London). Set your location on the main map for personalized predictions.

Altitude History

Loading altitude history...

Two-Line Element Set

1 61667U 24193G 26123.48784142 .00003069 00000-0 11578-3 0 9990
2 61667 53.1586 196.6735 0001215 67.2620 292.8509 15.30181787 84913
Epoch: May 3, 2026 • Age: 20 hours

Current Status

Altitude 474.9 km
Velocity 7.63 km/s
Sub-Earth Point 11.72°N, 142.88°W
Launch Date Oct 26, 2024
Age 1.5 years
Type internet

Technical Details

Classification Payload
Mass 730.00 kg
Dry Mass 700.00 kg
Total Mass 730.00 kg
Length 0.30 m
Diameter 4.10 m
Span 29.00 m
Shape Box + pan
Manufacturer SPXS
Bus Type Starlink V2M
Phase Status In Orbit
Owner/State SPXS/US

Most Searched